Location: Bouchavesnes-Bergen
(49.9859°N, 2.9203°E)
Time: 10:46:46
(UTC+00:00)

H-2A R/B - Pass Details

Date: 09 March 2021
Orbit: 577 x 654 km, 98.5° (Epoch: 12 April)

Event Time Altitude Azimuth Distance (km) Brightness Sun altitude
Rises 05:13:03 0° 193° (SSW) 2,853 5.3 -10.7°
Reaches altitude 10° 05:15:30 10° 205° (SSW) 1,941 4.3 -10.3°
Maximum altitude 05:19:06 27° 264° (W) 1,148 2.9 -9.8°
Drops below altitude 10° 05:22:41 10° 323° (NW) 1,922 4.3 -9.2°
Sets 05:25:06 0° 336° (NNW) 2,820 5.2 -8.8°
